Portada
METAR-TAF:

METAR-TAF

Aeroports :

Fillmore County Airport

Preston, Minnesota, Estats Units d'Amèrica

latitud: 43-40-36N, longitud: 092-10-47W, altitud: 389 m

Observació

L'informe es va fer fa 12 hores i 29 minuts, a les 15:51 UTC
Vent calma
Temperatura 23°C
Humitat 83%
Pressió 1018 hPa
Visibilitat: 16.1 km
Núvols disperses a una alçada de 700 ft

METAR: KFKA 171551Z AUTO 00000KT 10SM SCT007 23/20 A3006 RMK AO2 T02280196

Hora: 23:20 (04:20 UTC)


TAF: manca

Observacions i pronòstics meteorològics de més de 4000 aeroports (METAR i TAF).

Les estacions disponibles són els punts grocs i vermells al mapa.

Posi el ratolí al punt desitjat per veure el nom de l'estació.

Feu clic per veure les observacions i els pronòstics meteorològics.

Per canviar el mapa: feu clic els botons verds amb una creu de color negre per apropar; al botó verd amb un guió per allunyar la imatge; o en les fletxes verdes per a mapes adjacents.


METAR-TAF: